Location: Newark
(60.0000°N, 100.0000°E)
Time: 21:36:41
(UTC+00:00)

N. Korean satellite - Pass Details

Date: 28 November 2019
Orbit: 455 x 507 km, 97.2° (Epoch: 13 December)

Event Time Altitude Azimuth Distance (km) Brightness Sun altitude
Rises 22:38:50 0° 21° (NNE) 2,610 10.5 -22.0°
Reaches altitude 10° 22:41:11 10° 34° (NNE) 1,713 9.7 -21.7°
Maximum altitude 22:44:21 27° 93° (E) 987 8.8 -21.3°
Drops below altitude 10° 22:47:28 10° 153° (SSE) 1,677 9.7 -20.9°
Sets 22:49:45 0° 166° (SSE) 2,543 10.5 -20.7°
